Wind_Speed
33 32 32 32 32 33 33 34 34 34 33 33 34 36 36 37 38 38 38 38 37 37 37 36 37 36 36 37 37 38 37 37 37 38 38 38 38 38 38 39 39 39 39
32 32 32 32 33 33 33 33 34 34 34 34 35 36 37 37 37 38 38 38 38 39 39 38 37 37 37 36 37 38 38 38 38 39 39 39 39 40 40 40 41 41 41
32 33 33 33 33 33 33 34 34 35 34 35 35 37 38 38 38 38 38 38 38 39 40 39 39 39 39 38 38 38 38 39 39 40 40 40 41 41 41 42 42 42 42
33 33 32 32 32 33 34 34 35 35 35 36 36 37 38 38 38 38 38 39 39 40 39 40 40 39 39 40 40 39 39 39 40 40 41 42 42 41 42 43 43 43 43
31 31 31 31 32 33 33 34 35 36 36 36 37 37 39 40 40 40 40 40 40 41 41 40 39 39 39 39 39 39 39 40 40 41 42 42 42 43 43 43 42 42 43
31 31 31 32 32 33 33 33 34 35 35 36 37 37 39 40 41 42 42 41 41 42 42 41 40 40 41 40 41 41 41 42 42 42 43 43 44 44 44 43 43 43 43
31 31 31 32 32 33 34 34 35 35 35 36 36 38 39 40 41 41 42 42 42 41 41 41 41 41 42 43 43 44 44 44 44 44 44 44 45 45 45 45 44 45 45
30 31 32 32 33 34 34 35 35 35 36 36 36 37 37 39 40 41 42 42 43 43 42 42 42 42 43 43 44 44 44 45 45 46 46 46 46 45 46 47 47 47 47
30 31 32 32 33 34 34 34 35 36 36 36 36 36 36 37 38 39 41 42 43 43 43 44 44 43 43 44 44 45 44 45 46 46 47 47 47 47 47 47 48 48 49
29 30 32 32 32 32 33 34 35 36 37 37 37 37 37 38 38 39 41 42 43 43 43 44 45 45 45 45 46 46 45 45 46 46 46 47 48 48 48 49 49 49 49
29 29 30 30 30 31 31 33 34 34 36 37 37 38 38 39 39 40 41 42 43 44 43 45 45 45 46 46 47 47 46 46 47 47 47 47 48 48 49 50 51 50 50
28 29 29 29 30 30 30 31 32 32 33 35 36 37 37 38 38 39 40 42 43 44 44 45 45 46 47 47 47 48 48 48 48 48 48 48 49 49 50 51 51 51 51
28 28 28 28 28 29 30 31 31 32 33 34 35 37 38 38 39 40 41 42 43 45 46 46 47 47 48 49 48 48 49 49 48 48 48 48 49 49 50 52 52 52 52
27 27 28 27 27 28 29 30 31 32 33 34 35 36 37 38 40 40 41 42 43 44 46 47 47 47 49 49 49 50 50 50 49 49 49 49 49 50 50 51 52 52 52
28 28 28 28 28 28 29 30 31 32 33 33 34 35 36 37 38 39 40 42 43 44 45 46 46 47 48 49 49 50 50 50 50 50 50 51 51 51 52 51 52 52 52
28 28 29 29 30 30 30 31 31 32 33 34 35 35 36 36 37 38 39 41 43 44 45 46 47 47 48 48 48 49 49 49 50 51 51 51 52 52 52 52 52 52 53
27 28 29 30 31 31 31 31 31 32 33 34 34 35 36 37 38 39 40 41 42 43 45 46 47 47 47 48 48 47 48 48 49 49 50 50 50 51 51 51 52 52 52
27 27 27 28 29 30 31 31 32 33 33 33 34 35 36 37 38 39 40 41 41 42 43 44 45 46 47 47 47 47 47 48 48 49 49 49 49 49 50 50 51 51 51
27 28 28 28 29 29 30 31 31 32 33 33 34 34 35 36 38 39 40 40 41 42 42 43 44 45 46 46 46 45 46 46 46 47 48 48 48 48 49 49 49 49 49
28 28 29 29 29 30 30 30 30 31 31 32 33 34 35 36 37 38 39 40 40 41 41 42 43 43 43 43 43 43 44 44 44 44 45 46 46 47 47 47 46 46 46
27 28 29 29 29 29 30 30 30 31 31 31 32 33 34 36 37 37 38 38 39 39 40 41 41 41 41 41 42 43 43 43 43 43 44 44 45 45 45 45 45 44 44
27 27 28 28 29 29 29 30 30 31 31 32 32 33 34 34 35 36 36 37 38 39 39 40 40 41 41 41 42 42 43 43 43 43 44 44 44 44 44 44 43 43 43
26 26 27 27 27 28 28 29 29 30 31 32 32 33 33 34 34 35 35 36 37 38 38 39 40 40 41 41 41 42 42 42 42 42 43 43 43 44 44 44 43 43 43
25 25 26 26 26 26 26 27 28 30 30 31 32 33 34 34 35 36 36 36 37 37 38 38 39 39 40 40 40 41 42 42 41 41 41 42 42 42 43 42 42 41 41
24 25 25 25 25 26 26 27 28 29 30 31 32 33 34 35 35 36 36 37 37 37 38 38 39 39 39 39 40 41 41 42 41 41 41 41 40 41 41 40 40 39 39
24 24 24 24 25 26 27 28 28 29 30 31 32 33 34 34 35 36 36 37 38 39 39 39 39 39 39 39 40 40 41 41 41 40 40 39 39 39 39 38 38 39 39
Wind_Direction
250 250 249 249 250 249 249 248 249 249 249 249 247 245 244 245 246 247 249 251 251 253 254 255 257 259 260 260 262 262 262 263 265 265 265 266 267 268 269 269 269 270 271
251 250 249 249 250 250 248 248 249 248 247 248 248 246 245 245 246 248 250 251 252 253 254 255 257 258 259 260 262 262 262 264 264 265 266 266 268 269 270 270 270 270 271
251 251 251 250 250 250 250 249 250 248 249 249 248 247 246 246 247 248 250 251 251 253 253 256 257 258 260 261 263 263 264 265 264 264 266 267 269 269 270 271 272 272 271
250 249 249 249 249 250 251 252 252 250 251 251 251 249 247 247 248 248 249 249 251 254 255 257 257 258 260 261 262 264 265 265 266 266 267 268 268 269 270 271 271 272 271
250 249 248 248 249 251 252 251 252 252 253 254 253 251 248 249 249 249 251 252 252 253 255 257 258 259 260 262 263 265 266 267 267 267 268 269 270 270 271 271 271 271 271
250 249 248 249 249 251 252 252 252 253 254 255 255 253 252 251 250 251 252 253 254 255 256 258 259 260 260 263 265 266 266 268 268 269 269 270 271 271 271 271 271 271 272
250 250 250 250 250 251 252 253 253 253 254 254 255 255 255 254 253 253 253 254 254 256 257 259 259 261 263 264 265 266 267 268 269 269 270 271 272 271 271 271 271 271 272
251 252 253 253 252 252 253 254 253 254 254 255 256 257 258 257 256 255 255 255 256 257 258 259 260 261 263 264 265 265 267 268 269 271 272 272 272 271 270 270 271 271 272
255 255 255 256 255 254 254 255 254 254 255 256 257 259 259 259 258 257 257 256 257 258 259 260 260 261 263 264 264 266 267 269 269 271 272 272 271 270 271 271 272 272 273
257 257 257 257 255 255 254 255 256 256 256 257 259 259 259 260 260 260 260 259 259 261 261 262 262 263 264 265 266 267 267 269 270 271 272 271 271 270 271 271 272 273 274
258 257 256 256 256 255 255 255 256 257 257 258 260 260 260 261 262 262 262 261 262 263 263 264 265 265 265 267 268 268 268 269 270 272 271 271 271 271 270 271 272 273 274
258 257 256 256 256 255 255 256 256 258 259 259 260 261 262 262 263 264 264 263 263 264 264 266 266 266 266 267 268 269 269 270 272 272 272 272 272 271 271 271 272 273 274
259 258 257 257 255 255 255 256 258 259 260 261 262 262 263 263 264 265 265 265 265 266 266 266 267 268 267 268 268 270 271 271 272 272 272 272 272 273 273 272 272 273 274
259 259 258 258 258 257 257 258 259 261 262 262 263 264 265 265 265 266 266 267 268 268 268 268 268 269 269 269 270 271 271 272 272 272 272 272 273 273 274 274 274 274 274
260 261 260 260 261 260 259 260 262 263 264 265 266 266 267 267 268 268 268 268 269 270 271 270 270 271 272 271 270 271 271 271 272 272 273 274 274 275 275 275 274 274 273
262 263 263 263 263 262 262 263 264 264 265 266 268 268 268 269 270 270 270 270 271 271 271 271 271 272 272 271 270 270 270 271 271 272 273 275 276 276 276 276 276 275 274
263 264 265 265 264 264 265 266 266 266 266 268 269 268 269 270 271 271 272 273 273 274 274 274 274 273 272 271 270 269 270 270 271 272 273 274 276 276 276 276 276 276 276
266 265 265 265 265 266 267 267 267 267 268 269 271 270 271 272 274 274 275 275 275 275 276 276 276 274 273 272 271 270 270 269 270 271 273 274 275 276 277 277 276 276 276
267 266 267 267 267 268 268 268 268 268 269 270 271 272 273 274 275 276 276 276 276 276 276 276 276 276 275 274 273 272 272 271 271 272 273 274 275 276 276 277 277 276 276
267 267 268 269 268 269 269 269 269 270 271 271 272 274 275 276 277 276 276 276 277 277 277 277 277 276 275 274 273 272 272 273 274 274 274 275 276 276 277 277 278 277 276
268 268 268 268 268 269 270 270 270 272 273 274 275 276 278 279 279 278 278 278 278 278 279 279 278 277 275 274 273 272 273 275 276 276 276 277 277 278 277 277 277 277 277
269 269 270 269 268 269 271 272 272 273 275 276 278 278 279 280 281 281 280 280 279 279 279 279 278 277 276 274 273 274 274 276 277 277 277 277 277 277 277 277 277 277 277
270 271 271 270 269 269 270 271 273 274 276 278 279 280 281 282 283 283 283 283 282 281 280 280 279 277 276 275 274 274 275 276 278 278 277 277 277 276 277 276 276 276 276
272 272 272 270 269 269 272 273 275 276 278 280 281 282 282 283 284 284 284 285 284 283 282 281 280 279 276 275 275 275 275 275 277 278 278 277 276 277 277 276 276 276 276
274 274 274 272 271 272 273 274 277 279 281 282 284 284 284 285 285 286 286 286 285 285 284 283 282 280 277 276 276 276 276 276 277 278 278 277 276 277 277 277 276 275 275
274 274 275 274 273 274 276 277 279 281 283 284 285 286 286 286 287 287 288 288 288 286 285 284 283 281 279 277 276 276 277 278 277 278 278 278 278 277 276 275 274 274 274
Height
5720 5721 5722 5724 5725 5726 5728 5729 5730 5732 5733 5735 5737 5739 5743 5746 5749 5751 5753 5755 5756 5758 5760 5762 5763 5764 5765 5766 5766 5767 5768 5768 5768 5768 5768 5768 5768 5767 5766 5765 5765 5764 5763
5712 5714 5715 5716 5717 5719 5720 5722 5723 5724 5726 5728 5730 5732 5735 5738 5741 5743 5745 5747 5748 5750 5751 5753 5755 5756 5757 5757 5758 5758 5759 5759 5759 5759 5759 5759 5759 5758 5757 5756 5755 5754 5753
5705 5706 5707 5709 5710 5711 5713 5714 5715 5717 5719 5721 5722 5724 5727 5730 5732 5735 5737 5738 5739 5741 5743 5744 5746 5747 5748 5749 5749 5750 5750 5750 5750 5750 5750 5749 5749 5749 5748 5747 5746 5744 5744
5696 5697 5699 5700 5702 5704 5705 5707 5708 5709 5711 5713 5715 5717 5719 5721 5723 5726 5728 5729 5731 5732 5734 5735 5736 5738 5739 5739 5740 5741 5741 5741 5741 5741 5740 5740 5739 5739 5738 5737 5735 5734 5733
5688 5689 5691 5693 5695 5696 5697 5699 5700 5702 5703 5705 5706 5708 5710 5712 5714 5717 5719 5720 5722 5724 5725 5726 5727 5728 5729 5730 5731 5731 5731 5731 5731 5731 5730 5729 5729 5728 5727 5727 5725 5724 5722
5680 5682 5683 5685 5687 5688 5689 5691 5692 5694 5695 5697 5698 5700 5702 5704 5705 5708 5710 5711 5713 5714 5715 5717 5718 5719 5720 5720 5721 5721 5721 5721 5721 5720 5720 5719 5718 5717 5716 5716 5715 5713 5712
5672 5674 5675 5677 5678 5680 5682 5683 5684 5686 5687 5688 5690 5691 5693 5694 5696 5698 5700 5701 5703 5704 5705 5706 5708 5708 5709 5710 5710 5711 5711 5710 5710 5710 5709 5708 5707 5706 5705 5704 5704 5703 5702
5665 5666 5667 5668 5670 5671 5673 5674 5676 5677 5679 5680 5681 5682 5683 5685 5686 5688 5689 5690 5692 5693 5694 5696 5697 5698 5698 5699 5699 5700 5699 5699 5698 5698 5697 5696 5695 5694 5693 5692 5692 5691 5691
5657 5658 5659 5660 5661 5663 5664 5665 5666 5668 5669 5671 5672 5673 5675 5675 5677 5678 5679 5680 5681 5682 5683 5685 5686 5686 5687 5687 5688 5688 5687 5687 5687 5686 5685 5684 5683 5682 5681 5680 5679 5679 5678
5648 5649 5651 5652 5653 5654 5655 5656 5657 5659 5660 5661 5663 5664 5665 5666 5667 5668 5669 5669 5670 5671 5672 5673 5674 5674 5675 5675 5675 5675 5675 5675 5674 5673 5672 5671 5670 5669 5668 5667 5666 5665 5664
5641 5641 5642 5643 5645 5646 5646 5647 5648 5649 5651 5652 5653 5654 5655 5655 5656 5657 5658 5659 5660 5660 5661 5662 5662 5662 5663 5663 5663 5663 5662 5662 5661 5660 5659 5658 5657 5656 5655 5654 5653 5652 5651
5633 5634 5634 5635 5636 5637 5638 5639 5640 5641 5642 5643 5643 5644 5645 5645 5646 5647 5648 5648 5649 5649 5649 5649 5649 5650 5650 5650 5650 5650 5649 5648 5648 5647 5646 5645 5644 5643 5642 5641 5640 5638 5637
5625 5626 5627 5627 5628 5629 5630 5631 5631 5632 5632 5633 5633 5634 5634 5635 5636 5636 5637 5637 5637 5637 5637 5637 5637 5637 5637 5637 5637 5636 5635 5634 5634 5633 5632 5631 5630 5629 5628 5627 5626 5624 5623
5617 5618 5619 5619 5620 5620 5621 5622 5622 5622 5623 5623 5623 5623 5624 5624 5624 5625 5625 5625 5625 5625 5624 5624 5624 5623 5623 5623 5622 5622 5621 5620 5620 5619 5619 5618 5617 5615 5614 5612 5611 5610 5608
5609 5610 5611 5611 5611 5612 5612 5613 5613 5613 5613 5613 5613 5613 5613 5613 5613 5613 5613 5613 5613 5612 5611 5611 5610 5610 5609 5608 5608 5608 5607 5607 5606 5605 5604 5603 5602 5601 5599 5598 5596 5595 5594
5601 5602 5602 5602 5603 5603 5603 5604 5604 5604 5604 5604 5603 5603 5603 5603 5602 5602 5601 5601 5600 5599 5598 5598 5597 5596 5595 5595 5594 5593 5593 5593 5592 5592 5590 5589 5588 5586 5584 5583 5581 5580 5578
5593 5593 5593 5594 5594 5594 5594 5594 5594 5594 5594 5594 5594 5593 5593 5592 5591 5590 5590 5589 5588 5587 5586 5584 5583 5582 5581 5581 5580 5579 5579 5578 5578 5577 5576 5575 5574 5572 5570 5568 5566 5564 5563
5585 5585 5585 5585 5585 5585 5585 5585 5585 5585 5584 5584 5584 5583 5582 5581 5580 5579 5578 5577 5576 5574 5573 5572 5570 5569 5568 5567 5566 5565 5565 5564 5563 5563 5562 5561 5559 5557 5555 5554 5552 5550 5549
5576 5576 5576 5576 5576 5576 5575 5575 5575 5575 5575 5574 5573 5572 5571 5570 5569 5568 5566 5565 5563 5562 5560 5559 5557 5555 5554 5553 5552 5552 5551 5550 5550 5549 5548 5546 5545 5544 5542 5540 5538 5536 5534
5567 5567 5567 5567 5567 5567 5566 5566 5566 5565 5565 5564 5563 5562 5561 5560 5558 5556 5555 5553 5551 5550 5548 5546 5544 5543 5542 5540 5539 5538 5538 5537 5537 5536 5534 5533 5531 5529 5527 5525 5524 5522 5520
5558 5558 5558 5558 5558 5558 5557 5557 5557 5556 5556 5554 5553 5552 5551 5549 5547 5545 5543 5541 5539 5538 5536 5534 5532 5531 5529 5528 5526 5525 5524 5524 5523 5522 5520 5519 5517 5515 5513 5511 5510 5509 5507
5550 5549 5549 5549 5549 5548 5548 5548 5547 5547 5546 5545 5543 5542 5540 5538 5536 5534 5532 5529 5527 5525 5523 5521 5519 5518 5516 5515 5514 5513 5512 5511 5510 5508 5507 5505 5504 5502 5500 5498 5497 5495 5493
5541 5541 5540 5540 5539 5539 5539 5538 5538 5537 5536 5535 5533 5532 5530 5528 5525 5523 5521 5518 5516 5514 5511 5509 5507 5505 5504 5502 5501 5500 5499 5498 5496 5495 5493 5492 5490 5489 5487 5485 5483 5482 5480
5533 5532 5531 5531 5530 5530 5530 5529 5528 5527 5526 5524 5523 5521 5519 5517 5514 5512 5509 5507 5505 5502 5500 5497 5495 5493 5492 5490 5489 5487 5486 5485 5484 5482 5480 5479 5477 5475 5474 5472 5470 5469 5468
5525 5524 5523 5522 5522 5521 5521 5520 5519 5517 5516 5514 5512 5510 5508 5506 5503 5501 5498 5496 5493 5491 5488 5486 5483 5481 5480 5478 5476 5475 5474 5472 5471 5469 5467 5466 5464 5463 5461 5459 5458 5456 5456
5517 5516 5515 5514 5513 5512 5511 5510 5509 5507 5506 5504 5502 5499 5497 5495 5492 5490 5487 5484 5482 5479 5476 5473 5471 5469 5467 5466 5464 5462 5461 5459 5458 5456 5455 5453 5452 5450 5448 5447 5446 5445 5444